Location: Aufkirchen
(47.9603°N, 11.3653°E)
Time: 06:28:02
(UTC+01:00)

Transit 4A - Pass Details

Date: 26 November 2020
Orbit: 864 x 981 km, 66.8° (Epoch: 16 January)

Event Time Altitude Azimuth Distance (km) Brightness Sun altitude
Rises 19:09:13 0° 313° (NW) 3,676 11.6 -26.6°
Reaches altitude 10° 19:12:47 10° 294° (WNW) 2,708 11.1 -27.2°
Maximum altitude 19:16:29 16° 258° (WSW) 2,253 10.7 -27.8°
Drops below altitude 10° 19:20:08 10° 221° (SW) 2,657 10.8 -28.4°
Sets 19:23:37 0° 201° (SSW) 3,572 11.2 -29.0°
